Printer-friendly version
Follow the MPC on Twitter Follow the MPC on Facebook The MPC blog
Minor Planet Center

MPEC 2010-G54 : 2010 FF10

The following Minor Planet Electronic Circular may be linked-to from your own Web pages, but must not otherwise be redistributed electronically.

A form allowing access to any MPEC is at the bottom of this page.


Read MPEC 2010-G53 Read MPEC 2010-G55


M.P.E.C. 2010-G54                                Issued 2010 Apr.  9, 12:28 UT

     The Minor Planet Electronic Circulars contain information on unusual
         minor planets and routine data on comets.  They are published
   on behalf of Commission 20 of the International Astronomical Union by the
          Minor Planet Center, Smithsonian Astrophysical Observatory,
                          Cambridge, MA 02138, U.S.A.

             Prepared using the Tamkin Foundation Computer Network

                              MPC@CFA.HARVARD.EDU
       URL http://www.minorplanetcenter.org/iau/mpc.html  ISSN 1523-6714

                                   2010 FF10

Additional Observations:
     K10F10F  C2010 04 09.29436 14 16 39.32 +04 58 35.4          19.2 V EG054703
     K10F10F  C2010 04 09.30005 14 16 40.33 +04 58 51.6          19.6 V EG054703
     K10F10F  C2010 04 09.31151 14 16 42.38 +04 59 25.3          19.6 V EG054703
     K10F10F  C2010 04 09.31891 14 16 43.72 +04 59 47.2          19.3 V EG054703
     K10F10F  C2010 04 09.32530 14 16 44.93 +05 00 04.9          19.2 V EG054703
     K10F10F  C2010 04 09.33176 14 16 46.05 +05 00 24.4          19.5 V EG054703
     K10F10F  C2010 04 09.33821 14 16 47.19 +05 00 41.3                 EG054703
     K10F10F KC2010 04 09.34283 14 16 47.47 +05 00 52.1          19.8 R EG054H36
     K10F10F KC2010 04 09.35226 14 16 49.14 +05 01 19.5          19.5 R EG054H36
     K10F10F  C2010 04 09.36065614 16 50.41 +05 01 43.6          19.1 V EG054H21
     K10F10F KC2010 04 09.36162 14 16 50.87 +05 01 47.0          19.6 R EG054H36
     K10F10F  C2010 04 09.36244914 16 50.73 +05 01 48.7          19.2 V EG054H21
     K10F10F  C2010 04 09.36388514 16 50.99 +05 01 53.1          19.2 V EG054H21
     K10F10F  C2010 04 09.37950 14 16 54.55 +05 02 42.7          19.1 R EG054H01
     K10F10F  C2010 04 09.38270 14 16 55.36 +05 02 53.8          19.1 R EG054854
     K10F10F  C2010 04 09.38654 14 16 56.07 +05 03 04.8          18.9 R EG054854
     K10F10F  C2010 04 09.38679 14 16 55.86 +05 03 04.2          19.2 R EG054H01
     K10F10F  C2010 04 09.39039 14 16 56.65 +05 03 16.6          18.9 R EG054854
     K10F10F  C2010 04 09.39828 14 16 57.95 +05 03 37.8          19.1 R EG054H01
     K10F10F  C2010 04 09.40376 14 16 58.95 +05 03 54.0          19.0 R EG054H01
     K10F10F  C2010 04 09.43414 14 17 04.61 +05 05 25.0          19.3 R EG054926
     K10F10F  C2010 04 09.43650 14 17 05.04 +05 05 32.0          19.3 R EG054926
     K10F10F  C2010 04 09.43885 14 17 05.48 +05 05 38.9          19.3 R EG054926
     K10F10F  C2010 04 09.46787 14 17 10.77 +05 07 01.8          19.4 V EG054291
     K10F10F  C2010 04 09.47154 14 17 11.50 +05 07 14.4          19.4 V EG054291
     K10F10F  C2010 04 09.47525 14 17 12.09 +05 07 24.8          18.7 V EG054291

Observer details:
291 LPL/Spacewatch II.  Observer T. H. Bressi.  1.8-m f/2.7 reflector + CCD.
703 Catalina Sky Survey.  Observer R. E. Hill.  Measurers J. D. Ahern,
    E. C. Beshore, A. Boattini, G. J. Garradd, A. R. Gibbs, A. D. Grauer,
    R. E. Hill, R. A. Kowalski, S. M. Larson, R. H. McNaught.  0.68-m Schmidt
    + CCD.
854 Sabino Canyon Observatory, Tucson.  Observer J. E. McGaha.  0.36-m f/10.0
    Schmidt-Cassegrain + CCD.
926 Tenagra II Observatory.  Observers P. R. Holvorcem, M. Schwartz.  Measurer
    P. R. Holvorcem.  0.81-m f/7 Ritchey-Chretien + CCD.
H01 Magdalena Ridge Observatory, Socorro.  Observer W. H. Ryan.  2.4-m f/8.9
    reflector + CCD.
H21 Astronomical Research Observatory, Westfield.  Observer R. Holmes.
    Measurer S. Foglia.
H36 Sandlot Observatory, Scranton.  Observer G. Hug.  0.56-m reflector + CCD.

Orbital elements:
2010 FF10                                           PHA, Earth MOID = 0.0401 AU
Epoch 2010 July 23.0 TT = JDT 2455400.5                 MPC
M  12.30145              (2000.0)            P               Q
n   0.26006539     Peri.  105.01352     +0.02733795     +0.99940781
a   2.4307913      Node   166.50114     -0.94809594     +0.03254821
e   0.6371302      Incl.    5.13611     -0.31680707     -0.01116474
P   3.79           H   21.7           G   0.15           U   8
Residuals in seconds of arc
100320 691  0.5+  0.1+    100409 703  0.1-  0.5+    100409 H01  0.4+  0.3+
100320 691  0.2-  0.3+    100409 703  0.4-  1.4-    100409 854  0.4+  0.9+
100320 691  0.0   0.1+    100409 H36  0.5+  0.1+    100409 H01  0.5+  0.2+
100321 291  0.1-  0.2-    100409 H36  0.1-  0.1-    100409 H01  0.6+  0.4+
100321 291  0.0   0.2-    100409 H21  0.3+  0.1+    100409 926  0.6+  0.4+
100321 291  0.3-  0.1-    100409 H36  0.4+  0.1+    100409 926  0.6+  0.5+
100409 703  0.1-  0.9+    100409 H21  0.2+  0.1-    100409 926  0.8+  0.5+
100409 703  0.4-  0.5+    100409 H21  0.2+  0.1+    100409 291  0.5-  1.5-
100409 703  0.6-  0.7+    100409 H01  0.6+  0.1+    100409 291  0.2+  0.3+
100409 703  0.4-  0.9+    100409 854  1.9+  0.7+    100409 291  1.3-  0.2-
100409 703  0.5+  0.1-    100409 854 (2.1+  0.4+)

Ephemeris:
2010 FF10                a,e,i = 2.43, 0.64, 5                   q = 0.8821
Date    TT    R. A. (2000) Decl.     Delta      r     Elong.  Phase     V
2010 04 04    14 02.30   +01 25.9    0.248    1.237   161.0    15.3    20.0
2010 04 09    14 15.69   +04 44.7    0.202    1.193   159.5    17.1    19.5
2010 04 14    14 35.30   +09 35.6    0.161    1.151   154.8    21.8    19.1
2010 04 19    15 07.07   +16 57.2    0.125    1.110   145.7    30.7    18.7
2010 04 24    16 04.87   +27 59.5    0.0967   1.070   130.1    46.0    18.5
2010 04 29    17 55.56   +40 33.5    0.0828   1.033   106.5    69.1    18.8
2010 05 04    20 28.01   +44 10.5    0.0887   0.999    81.7    93.2    19.8
2010 05 09    22 15.29   +38 44.0    0.111    0.968    65.3   108.7    20.9
2010 05 14    23 12.59   +32 41.5    0.142    0.941    57.2   115.5    21.8

Timothy B. Spahr             (C) Copyright 2010 MPC           M.P.E.C. 2010-G54

Read MPEC 2010-G53 Read MPEC 2010-G55


MPEC number:

Enter an MPEC number in one of the following forms:

  • 1997-B01 (the full form)
  • J97B01 (the packed version of the full form)
  • B01 (the abbreviated form)

Valid HTML 4.01!